Flag for Russia Weather past 2 weeks in Ulyanovsk, Russia

Now
12 °F

Ice fog.


Feels Like: 12 °F
Forecast: 0 / 16 °F
Wind: No wind

Location: Ulyanovsk

Current Time: Mar 4, 2015 at 10:21:56 AM

Latest Report: Mar 4, 2015 at 10:00 AM


Visibility: 3 mi

Pressure: 30.18 "Hg

Humidity: 79%

Dew point: 7 °F

Location of UlyanovskLocation

Historic Weather in Ulyanovsk — Graph

°F

Ulyanovsk temperature yesterday

Maximum temperature yesterday: 32 °F (at 1:00 PM)
Minimum temperature yesterday: 3 °F (at 7:00 AM)
Average temperature yesterday: 16 °F

Past Weeks' High & Low Weather Summary

 TemperatureHumidityPressure
High39 °F (Feb 23, 3:00 PM)100% (Feb 22, 3:00 AM)30.69 "Hg (Feb 22, 3:00 AM)
Low-18 °F (Feb 20, 5:00 AM)47% (Mar 3, 3:00 PM)29.89 "Hg (Feb 20, 10:00 PM)
Average18 °F80%30.33 "Hg
* Reported Feb 17 9:00 AM — Mar 4 9:00 AM, Ulyanovsk, Weather by CustomWeather, © 2015

Note: Actual official high and low records may vary slightly from our data, if they occured in-between our weather recording intervals... More about our weather records

Advertising

Ulyanovsk weather history for previous 24 hours

 ConditionsComfort  
Time TempWeatherWind HumidityBarometerVisibility
9:00 AM
Wed, Mar 4
5 °FIce fog.3 mph78%30.18 "Hg3 mi
8:00 AM0 °FIce fog.No wind78%30.18 "Hg3 mi
7:00 AM-6 °FIce fog.No wind77%30.18 "Hg3 mi
6:00 AM-4 °FIce fog.No wind71%30.18 "Hg2 mi
5:00 AM-4 °FIce fog.No wind77%30.18 "Hg2 mi
4:00 AM-4 °FIce fog.No wind71%30.21 "Hg3 mi
3:00 AM-2 °FIce fog.No wind71%30.21 "Hg3 mi
2:00 AM0 °FIce fog.No wind71%30.21 "Hg3 mi
1:00 AM1 °FIce fog.No wind71%30.21 "Hg3 mi
12:00 AM3 °FClear.No wind72%30.21 "HgN/A
11:00 PM
Tue, Mar 3
5 °FClear.No wind72%30.21 "HgN/A
10:00 PM7 °FClear.No wind72%30.24 "HgN/A
9:00 PM10 °FClear.No wind61%30.24 "HgN/A
8:00 PM12 °FClear.No wind62%30.24 "HgN/A
7:00 PM16 °FClear.No wind67%30.24 "HgN/A
6:00 PM19 °FSunny.No wind63%30.24 "HgN/A
5:00 PM27 °FSunny.No wind64%30.24 "Hg5 mi
4:00 PM32 °FSunny.No wind55%30.24 "Hg5 mi
3:00 PM32 °FSunny.No wind47%30.24 "Hg5 mi
2:00 PM32 °FSunny.No wind51%30.24 "Hg5 mi
1:00 PM32 °FSunny.No wind64%30.24 "Hg5 mi
12:00 PM27 °FSunny.1 mph74%30.24 "Hg5 mi
11:00 AM25 °FSunny.1 mph74%30.27 "Hg5 mi
10:00 AM21 °FSunny.No wind74%30.27 "Hg5 mi
Weather by CustomWeather, © 2015

See weather overviewHow to use our weather pages